This demonstration page uses our WeatherBlox Daily Observations layout. Learn more.

Left ArrowRight Arrow

Hourly Observations for December 6, 2021

Temp ( °F °C ) Dew Point ( °F °C ) Humidity (%) Winds ( mph kmh ) Pressure ( in mb ) Visibility ( mi km ) Precip ( " mm )
12:53 am 00:53 Clear -2 -18.9 -5 -20.6 87 87 W 6 9 30.51 1033 10 16 0.00 0.00
1:53 am 01:53 Mostly Clear -3 -19.4 -6 -21.1 86 86 W 5 7 30.48 1032 10 16 0.00 0.00
2:53 am 02:53 Clear -4 -20 -7 -21.7 86 86 WNW 6 9 30.44 1031 10 16 0.00 0.00
3:53 am 03:53 Clear -6 -21.1 -9 -22.8 86 86 SSW 3 6 30.41 1030 10 16 0.00 0.00
4:53 am 04:53 Clear -7 -21.7 -11 -23.9 82 82 E 5 7 30.38 1029 10 16 0.00 0.00
5:53 am 05:53 Clear -4 -20 -7 -21.7 86 86 E 5 7 30.35 1028 10 16 0.00 0.00
6:53 am 06:53 Clear -2 -18.9 -6 -21.1 83 83 E 9 15 30.30 1026 10 16 0.00 0.00
7:53 am 07:53 Clear -2 -18.9 -6 -21.1 83 83 ENE 8 13 30.25 1024 10 16 0.00 0.00
8:53 am 08:53 Mostly Sunny -3 -19.4 -6 -21.1 86 86 ENE 10 17 30.20 1023 10 16 0.00 0.00
9:53 am 09:53 Cloudy -2 -18.9 -5 -20.6 87 87 NE 9 15 30.19 1022 10 16 0.00 0.00
10:53 am 10:53 Cloudy 0 -17.8 -4 -20 83 83 ENE 7 11 30.17 1022 10 16 0.00 0.00
11:53 am 11:53 Cloudy with Mist and Fog 1 -17.2 -3 -19.4 83 83 E 6 9 30.14 1021 6 10 0.00 0.00
12:03 pm 12:03 Cloudy with Light Snow 1 -17.2 -3 -19.4 83 83 E 6 9 30.24 1024 2 3 0.00 0.00
12:14 pm 12:14 Cloudy with Light Snow 1 -17.2 -3 -19.4 83 83 E 6 9 30.23 1024 1 2 0.00 0.00
12:35 pm 12:35 Mostly Cloudy with Light Snow 2 -16.7 -2 -18.9 83 83 E 5 7 30.21 1023 1 1 0.01 0.25
12:53 pm 12:53 Mostly Cloudy with Light Snow 2 -16.7 -2 -18.9 83 83 ENE 6 9 30.11 1020 1 2 0.01 0.25
1:00 pm 13:00 Mostly Cloudy with Snow 3 -16.1 -2 -18.9 79 79 ENE 6 9 30.19 1022 1 1 0.00 0.00
1:30 pm 13:30 Mostly Cloudy with Light Snow 4 -15.6 0 -17.8 83 83 E 5 7 30.18 1022 1 1 0.02 0.51
1:44 pm 13:44 Cloudy with Light Snow 3 -16 0 -18 85 85 E 5 7 30.17 1022 1 2 0.00 0.00
1:53 pm 13:53 Cloudy with Light Snow 5 -15 0 -17.8 79 79 E 5 7 30.07 1018 1 2 0.02 0.51
2:09 pm 14:09 Cloudy with Light Snow 5 -15 0 -17.8 79 79 E 5 7 30.15 1021 2 2 0.00 0.00
2:20 pm 14:20 Cloudy with Light Snow 5 -15 0 -18 78 78 E 3 6 30.16 1021 2 3 0.00 0.00
2:36 pm 14:36 Cloudy with Light Snow 6 -14.4 1 -17.2 79 79 Calm 30.15 1021 2 2 0.01 0.25
2:53 pm 14:53 Cloudy with Light Snow 6 -14.4 1 -17.2 79 79 Calm 30.07 1018 2 2 0.01 0.25
3:07 pm 15:07 Cloudy with Light Snow 5 -15 1 -17.2 83 83 Calm 30.16 1021 2 3 0.00 0.00
3:15 pm 15:15 Cloudy with Light Snow 6 -14.4 1 -17.2 79 79 Calm 30.16 1021 2 2 0.00 0.00
3:22 pm 15:22 Cloudy with Light Snow 7 -14 1 -17 78 78 NW 3 6 30.16 1021 1 2 0.00 0.00
3:38 pm 15:38 Cloudy with Light Snow 7 -14 1 -17 78 78 W 3 6 30.17 1022 2 2 0.00 0.00
3:45 pm 15:45 Cloudy with Light Snow 6 -14.4 2 -16.7 83 83 W 3 6 30.17 1022 2 2 0.01 0.25
3:53 pm 15:53 Cloudy with Light Snow 6 -14.4 2 -16.7 83 83 W 5 7 30.10 1019 2 2 0.01 0.25
4:09 pm 16:09 Cloudy with Light Snow 6 -14.4 2 -16.7 83 83 W 5 7 30.17 1022 3 5 0.00 0.00
4:16 pm 16:16 Cloudy with Mist and Fog 6 -14.4 2 -16.7 83 83 WNW 5 7 30.18 1022 6 10 0.00 0.00
4:53 pm 16:53 Mostly Cloudy 4 -15.6 1 -17.2 88 88 SW 6 9 30.12 1020 9 14 0.00 0.00
5:53 pm 17:53 Clear -1 -18.3 -4 -20 87 87 SW 7 11 30.14 1021 10 16 0.00 0.00
6:53 pm 18:53 Mostly Clear -5 -20.6 -9 -22.8 83 83 W 6 9 30.15 1021 10 16 0.00 0.00
7:33 pm 19:33 Mostly Cloudy -5 -20.6 -8 -22.2 87 87 SW 8 13 30.30 1026 10 16 0.00 0.00
7:53 pm 19:53 Cloudy -3 -19.4 -7 -21.7 82 82 WSW 9 15 30.17 1022 10 16 0.00 0.00
8:30 pm 20:30 Partly Cloudy -4 -20 -7 -21.7 86 86 W 6 9 30.29 1026 10 16 0.00 0.00
8:53 pm 20:53 Clear -6 -21.1 -9 -22.8 86 86 WNW 7 11 30.17 1022 10 16 0.00 0.00
9:53 pm 21:53 Clear -9 -22.8 -13 -25 82 82 WSW 6 9 30.17 1022 10 16 0.00 0.00
10:53 pm 22:53 Clear -7 -21.7 -10 -23.3 87 87 W 9 15 30.15 1021 10 16 0.00 0.00
11:53 pm 23:53 Clear -5 -20.6 -8 -22.2 87 87 W 6 9 30.14 1021 10 16 0.00 0.00

Powered by AerisWeather